TimeEST,TemperatureF,Dew PointF,Humidity,Sea Level PressureIn,VisibilityMPH,Wind Direction,Wind SpeedMPH,Gust SpeedMPH,PrecipitationIn,Events,Conditions,WindDirDegrees,DateUTC
12:28 AM,24.8,19.4,80,29.97,10.0,NNW,15.0,-,N/A,,Overcast,340,2012-12-27 05:28:00
12:53 AM,25.0,19.0,78,30.01,10.0,NNW,16.1,20.7,N/A,,Overcast,330,2012-12-27 05:53:00
1:53 AM,24.1,18.0,77,30.04,10.0,NNW,15.0,-,N/A,,Overcast,330,2012-12-27 06:53:00
2:31 AM,24.8,17.6,74,30.01,10.0,NNW,15.0,-,N/A,,Overcast,340,2012-12-27 07:31:00
2:53 AM,24.1,18.0,77,30.05,10.0,NNW,13.8,-,N/A,,Overcast,340,2012-12-27 07:53:00
3:32 AM,24.8,17.6,74,30.03,10.0,NNW,10.4,-,N/A,,Overcast,340,2012-12-27 08:32:00
3:53 AM,24.1,17.1,75,30.07,10.0,NNW,8.1,-,N/A,,Overcast,330,2012-12-27 08:53:00
4:53 AM,24.1,17.1,75,30.08,10.0,NNW,10.4,-,N/A,,Overcast,330,2012-12-27 09:53:00
5:53 AM,24.1,17.1,75,30.10,10.0,NNW,9.2,-,N/A,,Overcast,330,2012-12-27 10:53:00
6:53 AM,24.1,17.1,75,30.11,10.0,NNW,6.9,-,N/A,,Overcast,330,2012-12-27 11:53:00
8:53 AM,24.1,18.0,77,30.14,10.0,NNW,8.1,-,N/A,,Overcast,330,2012-12-27 13:53:00
9:53 AM,25.0,18.0,75,30.16,10.0,NNW,4.6,-,N/A,,Overcast,340,2012-12-27 14:53:00
10:53 AM,26.1,19.0,75,30.17,10.0,NW,3.5,-,N/A,,Overcast,320,2012-12-27 15:53:00
11:53 AM,27.0,19.9,75,30.17,10.0,NNW,3.5,-,N/A,,Overcast,330,2012-12-27 16:53:00
12:53 PM,28.0,21.0,75,30.15,10.0,WNW,4.6,-,N/A,,Overcast,290,2012-12-27 17:53:00
1:53 PM,28.9,21.9,75,30.13,10.0,WNW,4.6,-,N/A,,Overcast,290,2012-12-27 18:53:00
2:53 PM,30.0,23.0,75,30.13,10.0,West,4.6,-,N/A,,Overcast,270,2012-12-27 19:53:00
3:53 PM,30.9,23.0,72,30.13,10.0,Calm,Calm,-,N/A,,Overcast,0,2012-12-27 20:53:00
4:53 PM,30.9,24.1,76,30.14,10.0,Calm,Calm,-,N/A,,Overcast,0,2012-12-27 21:53:00
5:53 PM,30.9,23.0,72,30.17,10.0,WSW,8.1,-,N/A,,Overcast,240,2012-12-27 22:53:00
6:53 PM,30.9,24.1,76,30.18,10.0,West,3.5,-,N/A,,Overcast,260,2012-12-27 23:53:00
7:53 PM,30.9,23.0,72,30.17,10.0,Calm,Calm,-,N/A,,Overcast,0,2012-12-28 00:53:00
8:53 PM,30.9,24.1,76,30.17,10.0,Calm,Calm,-,N/A,,Overcast,0,2012-12-28 01:53:00
9:53 PM,28.9,23.0,78,30.15,10.0,Calm,Calm,-,N/A,,Overcast,0,2012-12-28 02:53:00
10:12 PM,28.4,21.2,74,30.12,10.0,Calm,Calm,-,N/A,,Scattered Clouds,0,2012-12-28 03:12:00
10:19 PM,28.4,23.0,80,30.12,10.0,Calm,Calm,-,N/A,,Mostly Cloudy,0,2012-12-28 03:19:00
10:53 PM,26.1,21.9,84,30.17,9.0,Calm,Calm,-,N/A,,Overcast,0,2012-12-28 03:53:00
11:53 PM,28.0,23.0,81,30.17,8.0,Calm,Calm,-,N/A,,Overcast,0,2012-12-28 04:53:00